Date String (YYYY-MM-DD hh:mm:ss) UTC,Instrument flags,Ambient pressure (hPa),Sample flow (lpm),Bypass flow (lpm),Sample temperature (°C),Ambient temperature (°C),ASC tube jacket temperature (°C),LED temperature (°C),Box temperature (°C),Sample RH (%),Span deviation,Mass concentration (μg/m³),Mass concentration (μg/m³),Mass concentration (μg/m³)
DateTimeUTC,F1_M11,P_M11,Q1_M11,Q2_M11,T1_M11,T2_M11,T3_M11,T4_M11,T5_M11,U1_M11,ZSPAN_M11,X0_M11,X2_M11,X1_M11
2023-02-01 15:00:00,,0825.5,4.98,0.00,22.6,21.2,00.0,31.5,24.3,06.8,0000.0,0003.38,0000.97,0000.58
2023-02-01 15:01:00,,0825.6,4.98,0.00,22.6,21.2,00.0,31.5,24.3,06.8,0000.0,0003.12,0000.98,0000.59
2023-02-01 15:02:00,,0825.6,5.03,0.00,22.6,21.2,00.0,31.5,24.3,06.8,0000.0,0002.00,0000.99,0000.58
2023-02-01 15:03:00,,0825.6,4.95,0.00,22.6,21.4,00.0,31.4,24.4,06.8,0000.0,0002.32,0000.96,0000.58
2023-02-01 15:04:00,,0825.6,5.01,0.00,22.7,22.5,00.0,31.4,24.6,06.8,0000.0,0002.57,0000.94,0000.56
2023-02-01 15:05:00,,0825.6,4.99,0.00,22.8,23.3,00.0,31.4,24.9,06.9,0000.0,0002.54,0000.93,0000.54
2023-02-01 15:06:00,,0825.6,5.01,0.00,22.9,23.0,00.0,31.5,24.8,07.0,0000.0,0004.24,0000.94,0000.53
2023-02-01 15:07:00,,0825.6,5.04,0.00,22.9,22.5,00.0,31.5,24.7,07.1,0000.0,0004.42,0000.96,0000.53
2023-02-01 15:08:00,,0825.6,5.01,0.00,22.8,22.0,00.0,31.6,24.6,07.1,0000.0,0004.24,0000.92,0000.52
2023-02-01 15:09:00,,0825.6,4.98,0.00,22.8,21.7,00.0,31.6,24.5,07.3,0000.0,0004.13,0000.88,0000.51
2023-02-01 15:10:00,,0825.6,4.98,0.00,22.8,21.5,00.0,31.6,24.5,07.5,0000.0,0004.07,0000.86,0000.49
2023-02-01 15:11:00,,0825.6,5.03,0.00,22.8,21.3,00.0,31.6,24.4,07.6,0000.0,0003.98,0000.81,0000.47
2023-02-01 15:12:00,,0825.6,4.98,0.00,22.7,21.3,00.0,31.6,24.4,07.6,0000.0,0003.90,0000.78,0000.44
2023-02-01 15:13:00,,0825.6,4.99,0.00,22.7,21.3,00.0,31.6,24.4,07.6,0000.0,0003.82,0000.73,0000.43
2023-02-01 15:14:00,,0825.6,5.08,0.00,22.7,21.3,00.0,31.6,24.4,07.6,0000.0,0003.54,0000.70,0000.41
2023-02-01 15:15:00,,0825.6,5.08,0.00,22.7,21.2,00.0,31.6,24.4,07.5,0000.0,0003.03,0000.67,0000.39
2023-02-01 15:16:00,,0825.5,4.93,0.00,22.7,21.2,00.0,31.6,24.4,07.4,0000.0,0003.12,0000.67,0000.40
2023-02-01 15:17:00,,0825.5,5.09,0.00,22.7,21.2,00.0,31.5,24.4,07.4,0000.0,0001.74,0000.70,0000.43
2023-02-01 15:18:00,,0825.6,5.00,0.00,22.7,21.3,00.0,31.5,24.3,07.4,0000.0,0001.39,0000.74,0000.50
2023-02-01 15:19:00,,0825.6,4.99,0.00,22.7,21.3,00.0,31.5,24.4,07.2,0000.0,0001.37,0000.79,0000.54
2023-02-01 15:20:00,,0825.6,5.04,0.00,22.7,21.3,00.0,31.5,24.4,07.2,0000.0,0001.46,0000.83,0000.57
2023-02-01 15:21:00,,0825.5,4.95,0.00,22.7,21.3,00.0,31.5,24.4,07.1,0000.0,0001.65,0000.91,0000.60
2023-02-01 15:22:00,,0825.6,5.05,0.00,22.7,21.4,00.0,31.5,24.4,07.2,0000.0,0001.75,0000.98,0000.63
2023-02-01 15:23:00,,0825.6,5.02,0.00,22.7,21.4,00.0,31.5,24.4,07.0,0000.0,0001.91,0001.02,0000.65
2023-02-01 15:24:00,,0825.6,4.98,0.00,22.7,21.4,00.0,31.5,24.4,07.1,0000.0,0001.99,0001.05,0000.66
2023-02-01 15:25:00,,0825.6,4.97,0.00,22.7,21.3,00.0,31.5,24.4,07.2,0000.0,0002.07,0001.09,0000.69
2023-02-01 15:26:00,,0825.6,5.01,0.00,22.7,21.4,00.0,31.5,24.4,07.1,0000.0,0002.15,0001.15,0000.71
2023-02-01 15:27:00,,0825.7,4.94,0.00,22.7,21.3,00.0,31.5,24.4,07.1,0000.0,0002.14,0001.16,0000.72
2023-02-01 15:28:00,,0825.7,5.03,0.00,22.7,21.3,00.0,31.5,24.4,07.2,0000.0,0002.23,0001.19,0000.73
2023-02-01 15:29:00,,0825.7,5.00,0.00,22.7,21.2,00.0,31.5,24.4,07.2,0000.0,0002.22,0001.15,0000.67
2023-02-01 15:30:00,,0825.7,5.02,0.00,22.7,21.1,00.0,31.5,24.4,07.3,0000.0,0002.16,0001.11,0000.64
2023-02-01 15:31:00,,0825.7,5.05,0.00,22.7,21.1,00.0,31.5,24.4,07.5,0000.0,0002.05,0001.06,0000.62
2023-02-01 15:32:00,,0825.7,5.02,0.00,22.7,21.2,00.0,31.5,24.4,07.6,0000.0,0001.93,0001.02,0000.61
2023-02-01 15:33:00,,0825.7,5.05,0.00,22.7,21.2,00.0,31.5,24.4,07.4,0000.0,0001.94,0001.00,0000.59
2023-02-01 15:34:00,,0825.7,4.99,0.00,22.7,21.3,00.0,31.5,24.4,07.5,0000.0,0001.75,0000.93,0000.56
2023-02-01 15:35:00,,0825.7,4.97,0.00,22.7,21.3,00.0,31.5,24.4,07.4,0000.0,0001.63,0000.92,0000.57
2023-02-01 15:36:00,,0825.9,5.00,0.00,22.7,21.3,00.0,31.5,24.4,07.5,0000.0,0001.64,0000.92,0000.56
2023-02-01 15:37:00,,0825.8,5.02,0.00,22.7,21.2,00.0,31.5,24.4,07.6,0000.0,0001.68,0000.95,0000.58
2023-02-01 15:38:00,,0825.8,4.97,0.00,22.6,21.2,00.0,31.5,24.4,07.7,0000.0,0001.72,0000.99,0000.64
2023-02-01 15:39:00,,0826.2,5.10,0.00,22.6,21.2,00.0,31.5,24.4,07.6,0000.0,0001.76,0001.08,0000.71
2023-02-01 15:40:00,,0825.9,4.96,0.00,22.6,21.1,00.0,31.4,24.3,07.7,0000.0,0002.19,0001.25,0000.86
2023-02-01 15:41:00,,0825.7,5.00,0.00,22.6,21.1,00.0,31.4,24.3,07.4,0000.0,0002.34,0001.34,0000.95
2023-02-01 15:42:00,,0825.7,4.96,0.00,22.6,21.1,00.0,31.4,24.3,07.2,0000.0,0002.55,0001.45,0001.00
2023-02-01 15:43:00,,0825.7,5.04,0.00,22.6,21.1,00.0,31.4,24.3,07.2,0000.0,0002.60,0001.45,0001.01
2023-02-01 15:44:00,,0825.7,5.01,0.00,22.6,21.1,00.0,31.4,24.3,07.2,0000.0,0002.55,0001.42,0001.02
2023-02-01 15:45:00,,0825.7,5.08,0.00,22.6,21.1,00.0,31.4,24.3,07.2,0000.0,0002.75,0001.49,0001.04
2023-02-01 15:46:00,,0825.9,4.99,0.00,22.6,21.5,00.0,31.4,24.4,07.1,0000.0,0002.86,0001.53,0001.05
2023-02-01 15:47:00,,0826.2,5.03,0.00,22.7,20.2,00.0,30.5,24.7,06.9,0000.0,0002.88,0001.52,0001.05
2023-02-01 15:48:00,,0825.9,5.00,0.00,22.8,23.2,00.0,31.4,24.9,06.9,0000.0,0003.03,0001.48,0001.01
2023-02-01 15:49:00,,0826.0,5.02,0.00,22.9,22.8,00.0,31.5,24.8,06.9,0000.0,0003.03,0001.45,0000.97
2023-02-01 15:50:00,,0825.8,5.05,0.00,22.9,22.5,00.0,31.5,24.8,07.0,0000.0,0002.97,0001.42,0000.94
2023-02-01 15:51:00,,0825.8,5.01,0.00,22.9,22.2,00.0,31.5,24.7,07.0,0000.0,0002.72,0001.30,0000.83
2023-02-01 15:52:00,,0825.8,5.02,0.00,22.8,21.9,00.0,31.6,24.7,07.0,0000.0,0002.68,0001.24,0000.76
2023-02-01 15:53:00,,0825.9,4.96,0.00,22.8,21.7,00.0,31.6,24.6,07.1,0000.0,0002.65,0001.25,0000.77
2023-02-01 15:54:00,,0825.9,5.00,0.00,22.8,21.7,00.0,31.6,24.6,07.1,0000.0,0002.61,0001.27,0000.78
2023-02-01 15:55:00,,0825.9,5.02,0.00,22.8,21.6,00.0,31.6,24.6,07.1,0000.0,0002.69,0001.34,0000.82
2023-02-01 15:56:00,,0825.9,4.98,0.00,22.8,21.6,00.0,31.6,24.6,07.1,0000.0,0002.64,0001.37,0000.87
2023-02-01 15:57:00,,0825.9,5.01,0.00,22.9,21.6,00.0,31.6,24.6,07.1,0000.0,0002.66,0001.41,0000.94
2023-02-01 15:58:00,,0825.9,4.96,0.00,22.8,21.5,00.0,31.6,24.6,07.2,0000.0,0002.89,0001.50,0001.02
2023-02-01 15:59:00,,0825.9,4.91,0.00,22.8,21.5,00.0,31.6,24.6,07.3,0000.0,0002.80,0001.60,0001.12
